ABS-2

Last updated on Tue Oct 15 2024 00:02:39 GMT+0000 (Coordinated Universal Time)

1 39508U 14006A 24288.49407678 -.00000089 00000+0 00000+0 0 9991 2 39508 0.0644 79.1428 0003470 116.2528 80.9472 1.00271902 39151
UTC large
Height (km)
Speed (km/s)
/
Latitude / Longitude
Inclination (degrees)
Orbital Period (minutes)
Azimuth
Elevation
Range (km)
Doppler Factor

Next 0 passes for location: London (51.5072 / 0.1276)

Sorry there are no passes over London.